Showing default

SBS 5, 19484

Orbit data source: Space-Track

SBS 5, 19484 is a payload satellite owned by IBM STLC (US) in GEO that was launched on Thu, 08 Sep 1988 UTC via an ARIANE 3 launch vehicle from the French Guiana (FRGUI). Payload-class satellites include a variety of spacecraft equipped with specific instruments for various scientific and technological missions. These include communications satellites like Starlink; space stations such as the ISS; scientific satellites like the Hubble; Earth observation satellites from companies like Planet Labs, Umbra, and HawkEye 360; GPS; miniature CubeSats for education and research; and military/defense satellites.

Not visible in the next 10 days
Identifier
19484, 1988-081B
Orbit
GEO
Country
Flag of USUS
Related business
Manufacturer
Hughes
Mission
Commercial Communications
Bus & Motor
HS-376, TE-M-700-17
Mass
1,246 kg wet, ~550 kg dry
Launch date (UTC)
1988-09-08 (37 years ago)
Launch vehicle
ARIANE 3
Launch site
French Guiana (FRGUI)
Object type
Payload
Rocket body
Debris
Shape & HBR
Cyl + 2 Pan, 3.3 m
Radar Cross Section
15.596 m², Large (>1 m²)

Expand to show TLE details & history
Last TLE update: 12 hours ago

TLE from 12 hours ago
0 SBS 5
1 19484U 88081B   26033.93121816  .00000003  00000-0  00000+0 0  9998
2 19484  14.5740   1.9431 0008592 310.0009 227.8434  0.99783154 45122
Epoch: 2026-02-02T22:20Z
TLE epoch observation values (Epoch: 2026-02-02T22:20:57.249Z)
Latitude
0.56549°
Longitude
71.45465°
Altitude
35,948.168 km
Speed
3.068 km/s
True Right ascension
11h 59m 15s
True Declination
0° 33' 54"
Sunlit
Object was in daylight at epoch
Visualization orbit readout
Latitude
Unknown
Longitude
Unknown
Altitude
Unknown
Speed
Unknown
Apparent Right ascension
Unknown
Apparent Declination
Unknown
Sunlit
N/A
Visualization observer readout
Local Sidereal Time
12:22:37
Azimuth
Unknown
Elevation
Unknown
Doppler factor
Unknown
Orbital elements
Apogee altitude
35,961.45 km
Perigee altitude
35,888.756 km
Semi-major axis
42,303.24 km
Eccentricity
0.00086
Inclination
14.574°
RAAN
1.9431°
Arg. of periapsis
310.0009°
True anomaly
227.77047°
Mean anomaly
227.8434°
Eccentric anomaly
227.80693°
Mean motion
0.24945 °/min
Orbital period
1,443.18 mins
BSTAR
0
Loading maneuver chart data...
Computing Atmospheric mass density...
Loading historical data...
Loading historical data...
Loading historical data...
Loading historical data...
Loading historical data...
Loading historical data...
Loading historical data...

Documentation

Showing up to 5 results
|